Time,TemperatureF,DewpointF,PressureIn,WindDirection,WindDirectionDegrees,WindSpeedMPH,WindSpeedGustMPH,Humidity,HourlyPrecipIn,Conditions,Clouds,dailyrainin,SoftwareType,DateUTC
2013-11-29 00:01:00,23.5,17.1,30.47,SW,232,0.0,0.0,76,0.00,,,0.00,WeatherCatV1.15B25,2013-11-29 05:01:00,
2013-11-29 00:06:00,23.5,16.8,30.47,SW,232,0.0,2.0,75,0.00,,,0.00,WeatherCatV1.15B25,2013-11-29 05:06:00,
2013-11-29 00:11:00,23.5,17.1,30.47,SW,232,0.0,0.0,76,0.00,,,0.00,WeatherCatV1.15B25,2013-11-29 05:11:00,
2013-11-29 00:16:00,23.5,17.1,30.47,SW,232,0.0,0.0,76,0.00,,,0.00,WeatherCatV1.15B25,2013-11-29 05:16:00,
2013-11-29 00:21:00,23.6,16.6,30.47,SW,232,0.0,0.0,74,0.00,,,0.00,WeatherCatV1.15B25,2013-11-29 05:21:00,
2013-11-29 00:26:00,23.6,16.9,30.47,SW,232,0.0,0.0,75,0.00,,,0.00,WeatherCatV1.15B25,2013-11-29 05:26:00,
2013-11-29 00:31:00,23.6,16.9,30.47,SW,232,0.0,1.0,75,0.00,,,0.00,WeatherCatV1.15B25,2013-11-29 05:31:00,
2013-11-29 00:36:00,23.7,17.3,30.47,SW,232,0.0,0.0,76,0.00,,,0.00,WeatherCatV1.15B25,2013-11-29 05:36:00,
2013-11-29 00:41:00,23.7,17.3,30.48,SW,232,0.0,0.0,76,0.00,,,0.00,WeatherCatV1.15B25,2013-11-29 05:41:00,
2013-11-29 00:46:00,23.7,17.3,30.47,SW,232,0.0,1.0,76,0.00,,,0.00,WeatherCatV1.15B25,2013-11-29 05:46:00,
2013-11-29 00:51:00,23.7,17.3,30.47,SW,232,0.0,0.0,76,0.00,,,0.00,WeatherCatV1.15B25,2013-11-29 05:51:00,
2013-11-29 00:56:00,23.7,17.0,30.47,West,266,1.0,4.0,75,0.00,,,0.00,WeatherCatV1.15B25,2013-11-29 05:56:00,
2013-11-29 01:01:00,23.7,17.0,30.47,West,265,0.0,0.0,75,0.00,,,0.00,WeatherCatV1.15B25,2013-11-29 06:01:00,
2013-11-29 01:06:00,23.8,17.4,30.47,West,265,0.0,0.0,76,0.00,,,0.00,WeatherCatV1.15B25,2013-11-29 06:06:00,
2013-11-29 01:11:00,23.7,17.3,30.47,West,266,0.0,0.0,76,0.00,,,0.00,WeatherCatV1.15B25,2013-11-29 06:11:00,
2013-11-29 01:16:00,23.7,17.0,30.47,West,265,0.0,1.0,75,0.00,,,0.00,WeatherCatV1.15B25,2013-11-29 06:16:00,
2013-11-29 01:21:00,23.7,17.0,30.47,West,266,0.0,0.0,75,0.00,,,0.00,WeatherCatV1.15B25,2013-11-29 06:21:00,
2013-11-29 01:26:00,23.7,17.3,30.47,West,266,0.0,1.0,76,0.00,,,0.00,WeatherCatV1.15B25,2013-11-29 06:26:00,
2013-11-29 01:31:00,23.7,17.0,30.47,West,265,0.0,0.0,75,0.00,,,0.00,WeatherCatV1.15B25,2013-11-29 06:31:00,
2013-11-29 01:36:00,23.7,17.0,30.47,West,266,0.0,0.0,75,0.00,,,0.00,WeatherCatV1.15B25,2013-11-29 06:36:00,
2013-11-29 01:41:00,23.7,17.0,30.47,West,265,0.0,0.0,75,0.00,,,0.00,WeatherCatV1.15B25,2013-11-29 06:41:00,
2013-11-29 01:46:00,23.7,17.0,30.47,West,266,0.0,0.0,75,0.00,,,0.00,WeatherCatV1.15B25,2013-11-29 06:46:00,
2013-11-29 01:51:00,23.7,17.0,30.47,West,266,2.0,2.0,75,0.00,,,0.00,WeatherCatV1.15B25,2013-11-29 06:51:00,
2013-11-29 01:56:00,23.8,16.7,30.47,West,266,0.0,0.0,74,0.00,,,0.00,WeatherCatV1.15B25,2013-11-29 06:56:00,
2013-11-29 02:01:00,23.8,16.7,30.48,West,266,0.0,0.0,74,0.00,,,0.00,WeatherCatV1.15B25,2013-11-29 07:01:00,
2013-11-29 02:06:00,23.8,16.7,30.48,West,265,0.0,0.0,74,0.00,,,0.00,WeatherCatV1.15B25,2013-11-29 07:06:00,
2013-11-29 02:11:00,23.9,17.2,30.48,West,265,0.0,2.0,75,0.00,,,0.00,WeatherCatV1.15B25,2013-11-29 07:11:00,
2013-11-29 02:16:00,23.8,17.1,30.47,West,265,0.0,1.0,75,0.00,,,0.00,WeatherCatV1.15B25,2013-11-29 07:16:00,
2013-11-29 02:21:00,23.8,17.1,30.47,West,266,0.0,0.0,75,0.00,,,0.00,WeatherCatV1.15B25,2013-11-29 07:21:00,
2013-11-29 02:26:00,23.8,17.4,30.47,West,266,0.0,2.0,76,0.00,,,0.00,WeatherCatV1.15B25,2013-11-29 07:26:00,
2013-11-29 02:31:00,23.9,17.8,30.48,West,266,0.0,0.0,77,0.00,,,0.00,WeatherCatV1.15B25,2013-11-29 07:31:00,
2013-11-29 02:36:00,23.9,17.8,30.47,West,266,0.0,0.0,77,0.00,,,0.00,WeatherCatV1.15B25,2013-11-29 07:36:00,
2013-11-29 02:41:00,23.9,17.8,30.48,West,265,0.0,0.0,77,0.00,,,0.00,WeatherCatV1.15B25,2013-11-29 07:41:00,
2013-11-29 02:46:00,23.9,18.1,30.47,West,265,0.0,0.0,78,0.00,,,0.00,WeatherCatV1.15B25,2013-11-29 07:46:00,
2013-11-29 02:51:00,23.9,18.1,30.48,SW,229,0.0,1.0,78,0.00,,,0.00,WeatherCatV1.15B25,2013-11-29 07:51:00,
2013-11-29 02:56:00,23.9,18.4,30.48,SW,229,0.0,0.0,79,0.00,,,0.00,WeatherCatV1.15B25,2013-11-29 07:56:00,
2013-11-29 03:01:00,23.9,18.6,30.48,SW,229,0.0,1.0,80,0.00,,,0.00,WeatherCatV1.15B25,2013-11-29 08:01:00,
2013-11-29 03:06:00,23.9,18.4,30.48,SW,229,0.0,0.0,79,0.00,,,0.00,WeatherCatV1.15B25,2013-11-29 08:06:00,
2013-11-29 03:11:00,23.9,18.6,30.47,NW,318,0.0,0.0,80,0.00,,,0.00,WeatherCatV1.15B25,2013-11-29 08:11:00,
2013-11-29 03:16:00,23.9,18.6,30.48,NW,318,0.0,1.0,80,0.00,,,0.00,WeatherCatV1.15B25,2013-11-29 08:16:00,
2013-11-29 03:21:00,23.9,18.6,30.48,NW,318,0.0,1.0,80,0.00,,,0.00,WeatherCatV1.15B25,2013-11-29 08:21:00,
2013-11-29 03:26:00,23.9,18.6,30.48,NW,318,0.0,0.0,80,0.00,,,0.00,WeatherCatV1.15B25,2013-11-29 08:26:00,
2013-11-29 03:31:00,23.9,18.9,30.48,NW,318,0.0,0.0,81,0.00,,,0.00,WeatherCatV1.15B25,2013-11-29 08:31:00,
2013-11-29 03:36:00,23.9,18.9,30.48,NW,318,0.0,0.0,81,0.00,,,0.00,WeatherCatV1.15B25,2013-11-29 08:36:00,
2013-11-29 03:41:00,23.9,18.9,30.48,NW,318,0.0,0.0,81,0.00,,,0.00,WeatherCatV1.15B25,2013-11-29 08:41:00,
2013-11-29 03:46:00,23.9,18.9,30.48,NW,318,0.0,1.0,81,0.00,,,0.00,WeatherCatV1.15B25,2013-11-29 08:46:00,
2013-11-29 03:51:00,23.9,18.9,30.48,NW,318,0.0,0.0,81,0.00,,,0.00,WeatherCatV1.15B25,2013-11-29 08:51:00,
2013-11-29 03:56:00,23.9,18.9,30.48,NW,318,0.0,0.0,81,0.00,,,0.00,WeatherCatV1.15B25,2013-11-29 08:56:00,
2013-11-29 04:01:00,23.9,18.9,30.48,NW,318,0.0,0.0,81,0.00,,,0.00,WeatherCatV1.15B25,2013-11-29 09:01:00,
2013-11-29 04:06:00,23.9,18.9,30.48,NW,318,0.0,0.0,81,0.00,,,0.00,WeatherCatV1.15B25,2013-11-29 09:06:00,
2013-11-29 04:11:00,23.8,18.8,30.48,NW,318,0.0,0.0,81,0.00,,,0.00,WeatherCatV1.15B25,2013-11-29 09:11:00,
2013-11-29 04:16:00,23.8,18.8,30.48,NW,318,0.0,0.0,81,0.00,,,0.00,WeatherCatV1.15B25,2013-11-29 09:16:00,
2013-11-29 04:21:00,23.8,18.8,30.49,NW,318,0.0,0.0,81,0.00,,,0.00,WeatherCatV1.15B25,2013-11-29 09:21:00,
2013-11-29 04:26:00,23.8,18.8,30.48,NW,318,0.0,0.0,81,0.00,,,0.00,WeatherCatV1.15B25,2013-11-29 09:26:00,
2013-11-29 04:31:00,23.7,18.7,30.48,NW,318,0.0,0.0,81,0.00,,,0.00,WeatherCatV1.15B25,2013-11-29 09:31:00,
2013-11-29 04:36:00,23.7,18.7,30.49,NW,318,0.0,0.0,81,0.00,,,0.00,WeatherCatV1.15B25,2013-11-29 09:36:00,
2013-11-29 04:41:00,23.6,18.9,30.49,NW,318,0.0,0.0,82,0.00,,,0.00,WeatherCatV1.15B25,2013-11-29 09:41:00,
2013-11-29 04:46:00,23.5,18.8,30.49,NW,318,0.0,0.0,82,0.00,,,0.00,WeatherCatV1.15B25,2013-11-29 09:46:00,
2013-11-29 04:51:00,23.4,18.7,30.49,NW,318,0.0,1.0,82,0.00,,,0.00,WeatherCatV1.15B25,2013-11-29 09:51:00,
2013-11-29 04:56:00,23.4,18.7,30.49,WSW,257,0.0,2.0,82,0.00,,,0.00,WeatherCatV1.15B25,2013-11-29 09:56:00,
2013-11-29 05:01:00,23.3,18.6,30.49,WSW,257,0.0,0.0,82,0.00,,,0.00,WeatherCatV1.15B25,2013-11-29 10:01:00,
2013-11-29 05:06:00,23.3,18.6,30.49,WSW,257,0.0,0.0,82,0.00,,,0.00,WeatherCatV1.15B25,2013-11-29 10:06:00,
2013-11-29 05:11:00,23.2,18.5,30.49,WSW,257,0.0,0.0,82,0.00,,,0.00,WeatherCatV1.15B25,2013-11-29 10:11:00,
2013-11-29 05:16:00,23.2,18.5,30.49,WSW,257,0.0,0.0,82,0.00,,,0.00,WeatherCatV1.15B25,2013-11-29 10:16:00,
2013-11-29 05:21:00,23.1,18.7,30.50,WSW,257,0.0,0.0,83,0.00,,,0.00,WeatherCatV1.15B25,2013-11-29 10:21:00,
2013-11-29 05:26:00,23.1,18.7,30.49,WSW,257,0.0,0.0,83,0.00,,,0.00,WeatherCatV1.15B25,2013-11-29 10:26:00,
2013-11-29 05:31:00,23.1,18.7,30.50,WSW,257,0.0,0.0,83,0.00,,,0.00,WeatherCatV1.15B25,2013-11-29 10:31:00,
2013-11-29 05:36:00,23.1,19.0,30.50,WSW,257,0.0,0.0,84,0.00,,,0.00,WeatherCatV1.15B25,2013-11-29 10:36:00,
2013-11-29 05:41:00,23.0,18.9,30.50,NW,314,0.0,0.0,84,0.00,,,0.00,WeatherCatV1.15B25,2013-11-29 10:41:00,
2013-11-29 05:46:00,23.0,18.9,30.50,NW,315,0.0,0.0,84,0.00,,,0.00,WeatherCatV1.15B25,2013-11-29 10:46:00,
2013-11-29 05:51:00,23.0,18.9,30.50,NW,315,0.0,0.0,84,0.00,,,0.00,WeatherCatV1.15B25,2013-11-29 10:51:00,
2013-11-29 05:56:00,22.9,18.8,30.51,NW,315,0.0,1.0,84,0.00,,,0.00,WeatherCatV1.15B25,2013-11-29 10:56:00,
2013-11-29 06:01:00,22.9,18.8,30.51,NW,314,0.0,0.0,84,0.00,,,0.00,WeatherCatV1.15B25,2013-11-29 11:01:00,
2013-11-29 06:06:00,22.9,18.8,30.51,NW,314,0.0,0.0,84,0.00,,,0.00,WeatherCatV1.15B25,2013-11-29 11:06:00,
2013-11-29 06:11:00,22.8,18.7,30.51,NW,315,0.0,0.0,84,0.00,,,0.00,WeatherCatV1.15B25,2013-11-29 11:11:00,
2013-11-29 06:16:00,22.9,18.8,30.52,NW,315,0.0,0.0,84,0.00,,,0.00,WeatherCatV1.15B25,2013-11-29 11:16:00,
2013-11-29 06:21:00,22.8,18.7,30.52,NW,315,0.0,0.0,84,0.00,,,0.00,WeatherCatV1.15B25,2013-11-29 11:21:00,
2013-11-29 06:26:00,22.8,18.7,30.52,NW,315,0.0,0.0,84,0.00,,,0.00,WeatherCatV1.15B25,2013-11-29 11:26:00,
2013-11-29 06:31:00,22.7,18.3,30.52,NW,315,0.0,0.0,83,0.00,,,0.00,WeatherCatV1.15B25,2013-11-29 11:31:00,
2013-11-29 06:36:00,22.7,18.3,30.52,South,191,0.0,2.0,83,0.00,,,0.00,WeatherCatV1.15B25,2013-11-29 11:36:00,
2013-11-29 06:41:00,22.6,18.5,30.52,SSW,192,0.0,0.0,84,0.00,,,0.00,WeatherCatV1.15B25,2013-11-29 11:41:00,
2013-11-29 06:46:00,22.6,18.5,30.53,SSW,192,0.0,3.0,84,0.00,,,0.00,WeatherCatV1.15B25,2013-11-29 11:46:00,
2013-11-29 06:51:00,22.7,18.6,30.53,SSW,192,0.0,0.0,84,0.00,,,0.00,WeatherCatV1.15B25,2013-11-29 11:51:00,
2013-11-29 06:56:00,22.9,18.8,30.53,West,279,0.0,3.0,84,0.00,,,0.00,WeatherCatV1.15B25,2013-11-29 11:56:00,
2013-11-29 07:01:00,23.0,18.9,30.53,West,276,0.0,1.0,84,0.00,,,0.00,WeatherCatV1.15B25,2013-11-29 12:01:00,
2013-11-29 07:06:00,23.0,18.9,30.54,West,277,0.0,0.0,84,0.00,,,0.00,WeatherCatV1.15B25,2013-11-29 12:06:00,
2013-11-29 07:11:00,23.0,18.9,30.54,NNW,327,1.0,4.0,84,0.00,,,0.00,WeatherCatV1.15B25,2013-11-29 12:11:00,
2013-11-29 07:16:00,22.9,18.8,30.54,SW,217,0.0,2.0,84,0.00,,,0.00,WeatherCatV1.15B25,2013-11-29 12:16:00,
2013-11-29 07:21:00,22.8,19.0,30.54,WNW,290,2.0,4.0,85,0.00,,,0.00,WeatherCatV1.15B25,2013-11-29 12:21:00,
2013-11-29 07:26:00,22.9,19.1,30.55,WNW,290,2.0,2.0,85,0.00,,,0.00,WeatherCatV1.15B25,2013-11-29 12:26:00,
2013-11-29 07:31:00,22.8,19.0,30.55,WNW,294,1.0,3.0,85,0.00,,,0.00,WeatherCatV1.15B25,2013-11-29 12:31:00,
2013-11-29 07:36:00,22.9,19.1,30.55,WNW,292,2.0,2.0,85,0.00,,,0.00,WeatherCatV1.15B25,2013-11-29 12:36:00,
2013-11-29 07:41:00,23.1,19.3,30.55,WNW,292,1.0,2.0,85,0.00,,,0.00,WeatherCatV1.15B25,2013-11-29 12:41:00,
2013-11-29 07:46:00,23.3,19.5,30.56,WNW,292,0.0,0.0,85,0.00,,,0.00,WeatherCatV1.15B25,2013-11-29 12:46:00,
2013-11-29 07:51:00,23.5,19.7,30.56,WNW,292,2.0,2.0,85,0.00,,,0.00,WeatherCatV1.15B25,2013-11-29 12:51:00,
2013-11-29 07:56:00,23.7,19.9,30.56,WNW,292,0.0,0.0,85,0.00,,,0.00,WeatherCatV1.15B25,2013-11-29 12:56:00,
2013-11-29 08:01:00,23.9,19.8,30.56,West,270,0.0,0.0,84,0.00,,,0.00,WeatherCatV1.15B25,2013-11-29 13:01:00,
2013-11-29 08:06:00,24.1,20.0,30.57,West,270,0.0,0.0,84,0.00,,,0.00,WeatherCatV1.15B25,2013-11-29 13:06:00,
2013-11-29 08:11:00,24.2,20.1,30.57,West,270,0.0,0.0,84,0.00,,,0.00,WeatherCatV1.15B25,2013-11-29 13:11:00,
2013-11-29 08:16:00,24.3,19.9,30.57,West,270,2.0,3.0,83,0.00,,,0.00,WeatherCatV1.15B25,2013-11-29 13:16:00,
2013-11-29 08:21:00,24.4,20.0,30.57,West,270,0.0,2.0,83,0.00,,,0.00,WeatherCatV1.15B25,2013-11-29 13:21:00,
2013-11-29 08:26:00,24.5,20.1,30.57,West,278,0.0,0.0,83,0.00,,,0.00,WeatherCatV1.15B25,2013-11-29 13:26:00,
2013-11-29 08:31:00,24.6,20.2,30.58,West,278,0.0,0.0,83,0.00,,,0.00,WeatherCatV1.15B25,2013-11-29 13:31:00,
2013-11-29 08:36:00,24.7,20.3,30.58,West,278,0.0,0.0,83,0.00,,,0.00,WeatherCatV1.15B25,2013-11-29 13:36:00,
2013-11-29 08:41:00,24.8,20.1,30.58,West,278,0.0,0.0,82,0.00,,,0.00,WeatherCatV1.15B25,2013-11-29 13:41:00,
2013-11-29 08:46:00,24.9,20.5,30.58,West,277,0.0,0.0,83,0.00,,,0.00,WeatherCatV1.15B25,2013-11-29 13:46:00,
2013-11-29 08:51:00,25.2,20.8,30.58,West,278,0.0,2.0,83,0.00,,,0.00,WeatherCatV1.15B25,2013-11-29 13:51:00,
2013-11-29 08:56:00,25.5,21.1,30.58,West,278,0.0,0.0,83,0.00,,,0.00,WeatherCatV1.15B25,2013-11-29 13:56:00,
2013-11-29 09:01:00,25.9,21.2,30.58,West,277,1.0,1.0,82,0.00,,,0.00,WeatherCatV1.15B25,2013-11-29 14:01:00,
2013-11-29 09:06:00,26.1,21.4,30.59,NW,311,4.0,4.0,82,0.00,,,0.00,WeatherCatV1.15B25,2013-11-29 14:06:00,
2013-11-29 09:11:00,26.3,21.6,30.59,NW,310,2.0,2.0,82,0.00,,,0.00,WeatherCatV1.15B25,2013-11-29 14:11:00,
2013-11-29 09:16:00,26.6,21.6,30.59,NNW,340,2.0,4.0,81,0.00,,,0.00,WeatherCatV1.15B25,2013-11-29 14:16:00,
2013-11-29 09:21:00,26.7,21.7,30.59,NNW,338,3.0,3.0,81,0.00,,,0.00,WeatherCatV1.15B25,2013-11-29 14:21:00,
2013-11-29 09:26:00,26.7,21.7,30.60,WNW,294,0.0,0.0,81,0.00,,,0.00,WeatherCatV1.15B25,2013-11-29 14:26:00,
2013-11-29 09:31:00,26.8,21.5,30.60,WNW,294,0.0,0.0,80,0.00,,,0.00,WeatherCatV1.15B25,2013-11-29 14:31:00,
2013-11-29 09:36:00,27.0,21.7,30.60,NNW,337,0.0,0.0,80,0.00,,,0.00,WeatherCatV1.15B25,2013-11-29 14:36:00,
2013-11-29 09:41:00,27.2,21.9,30.60,NNW,327,3.0,4.0,80,0.00,,,0.00,WeatherCatV1.15B25,2013-11-29 14:41:00,
2013-11-29 09:46:00,27.1,21.2,30.60,NNW,334,2.0,3.0,78,0.00,,,0.00,WeatherCatV1.15B25,2013-11-29 14:46:00,
2013-11-29 09:51:00,27.1,21.5,30.60,NW,321,3.0,4.0,79,0.00,,,0.00,WeatherCatV1.15B25,2013-11-29 14:51:00,
2013-11-29 09:56:00,27.1,21.5,30.60,NW,306,0.0,3.0,79,0.00,,,0.00,WeatherCatV1.15B25,2013-11-29 14:56:00,
2013-11-29 10:01:00,27.3,21.7,30.60,NNW,344,2.0,2.0,79,0.00,,,0.00,WeatherCatV1.15B25,2013-11-29 15:01:00,
2013-11-29 10:06:00,27.4,21.5,30.60,NW,318,0.0,0.0,78,0.00,,,0.00,WeatherCatV1.15B25,2013-11-29 15:06:00,
2013-11-29 10:11:00,27.5,21.9,30.60,WNW,289,4.0,4.0,79,0.00,,,0.00,WeatherCatV1.15B25,2013-11-29 15:11:00,
2013-11-29 10:16:00,27.4,21.5,30.60,NNW,329,4.0,4.0,78,0.00,,,0.00,WeatherCatV1.15B25,2013-11-29 15:16:00,
2013-11-29 10:21:00,27.5,21.9,30.60,NNW,327,2.0,3.0,79,0.00,,,0.00,WeatherCatV1.15B25,2013-11-29 15:21:00,
2013-11-29 10:26:00,27.4,21.5,30.60,West,269,0.0,1.0,78,0.00,,,0.00,WeatherCatV1.15B25,2013-11-29 15:26:00,
2013-11-29 10:31:00,27.6,22.0,30.60,NNW,333,0.0,3.0,79,0.00,,,0.00,WeatherCatV1.15B25,2013-11-29 15:31:00,
2013-11-29 10:36:00,27.6,21.7,30.60,NNW,347,1.0,3.0,78,0.00,,,0.00,WeatherCatV1.15B25,2013-11-29 15:36:00,
2013-11-29 10:41:00,27.5,21.6,30.60,NW,326,2.0,3.0,78,0.00,,,0.00,WeatherCatV1.15B25,2013-11-29 15:41:00,
2013-11-29 10:46:00,27.6,22.0,30.60,NW,304,0.0,3.0,79,0.00,,,0.00,WeatherCatV1.15B25,2013-11-29 15:46:00,
2013-11-29 10:51:00,27.8,21.9,30.60,NNW,328,1.0,5.0,78,0.00,,,0.00,WeatherCatV1.15B25,2013-11-29 15:51:00,
2013-11-29 10:56:00,28.1,22.4,30.60,NNW,337,5.0,6.0,79,0.00,,,0.00,WeatherCatV1.15B25,2013-11-29 15:56:00,
2013-11-29 11:01:00,28.1,22.4,30.59,NNW,330,1.0,2.0,79,0.00,,,0.00,WeatherCatV1.15B25,2013-11-29 16:01:00,
2013-11-29 11:06:00,28.3,22.3,30.59,NW,316,1.0,4.0,78,0.00,,,0.00,WeatherCatV1.15B25,2013-11-29 16:06:00,
2013-11-29 11:11:00,28.4,22.7,30.59,NW,312,2.0,5.0,79,0.00,,,0.00,WeatherCatV1.15B25,2013-11-29 16:11:00,
2013-11-29 11:16:00,28.5,22.5,30.59,NW,315,2.0,3.0,78,0.00,,,0.00,WeatherCatV1.15B25,2013-11-29 16:16:00,
2013-11-29 11:21:00,28.5,22.2,30.59,NW,309,0.0,3.0,77,0.00,,,0.00,WeatherCatV1.15B25,2013-11-29 16:21:00,
2013-11-29 11:26:00,28.5,22.2,30.59,NNW,348,2.0,3.0,77,0.00,,,0.00,WeatherCatV1.15B25,2013-11-29 16:26:00,
2013-11-29 11:31:00,28.5,21.9,30.59,NNW,337,2.0,4.0,76,0.00,,,0.00,WeatherCatV1.15B25,2013-11-29 16:31:00,
2013-11-29 11:36:00,28.3,21.7,30.59,NNW,331,0.0,5.0,76,0.00,,,0.00,WeatherCatV1.15B25,2013-11-29 16:36:00,
2013-11-29 11:41:00,28.3,22.0,30.59,NNW,346,1.0,2.0,77,0.00,,,0.00,WeatherCatV1.15B25,2013-11-29 16:41:00,
2013-11-29 11:46:00,28.4,21.8,30.59,NNW,336,2.0,5.0,76,0.00,,,0.00,WeatherCatV1.15B25,2013-11-29 16:46:00,
2013-11-29 11:51:00,28.4,21.8,30.59,NW,323,2.0,4.0,76,0.00,,,0.00,WeatherCatV1.15B25,2013-11-29 16:51:00,
2013-11-29 11:56:00,28.2,21.6,30.59,North,0,0.0,1.0,76,0.00,,,0.00,WeatherCatV1.15B25,2013-11-29 16:56:00,
2013-11-29 12:01:00,28.3,21.4,30.59,NNW,345,2.0,5.0,75,0.00,,,0.00,WeatherCatV1.15B25,2013-11-29 17:01:00,
2013-11-29 12:06:00,28.4,22.1,30.59,NW,324,2.0,6.0,77,0.00,,,0.00,WeatherCatV1.15B25,2013-11-29 17:06:00,
2013-11-29 12:11:00,28.4,21.5,30.59,NW,304,3.0,6.0,75,0.00,,,0.00,WeatherCatV1.15B25,2013-11-29 17:11:00,
2013-11-29 12:16:00,28.4,21.8,30.59,NNW,333,2.0,3.0,76,0.00,,,0.00,WeatherCatV1.15B25,2013-11-29 17:16:00,
2013-11-29 12:21:00,28.2,21.6,30.59,NNW,333,0.0,1.0,76,0.00,,,0.00,WeatherCatV1.15B25,2013-11-29 17:21:00,
2013-11-29 12:26:00,28.2,21.9,30.59,NW,311,0.0,0.0,77,0.00,,,0.00,WeatherCatV1.15B25,2013-11-29 17:26:00,
2013-11-29 12:31:00,28.3,21.7,30.59,WNW,294,2.0,3.0,76,0.00,,,0.00,WeatherCatV1.15B25,2013-11-29 17:31:00,
2013-11-29 12:36:00,28.5,21.9,30.59,NW,313,2.0,3.0,76,0.00,,,0.00,WeatherCatV1.15B25,2013-11-29 17:36:00,
2013-11-29 12:41:00,28.6,21.7,30.59,NW,321,2.0,3.0,75,0.00,,,0.00,WeatherCatV1.15B25,2013-11-29 17:41:00,
2013-11-29 12:46:00,28.5,22.2,30.59,WNW,303,1.0,3.0,77,0.00,,,0.00,WeatherCatV1.15B25,2013-11-29 17:46:00,
2013-11-29 12:51:00,28.5,21.9,30.60,WNW,296,0.0,3.0,76,0.00,,,0.00,WeatherCatV1.15B25,2013-11-29 17:51:00,
2013-11-29 12:56:00,28.6,22.3,30.60,NW,311,1.0,3.0,77,0.00,,,0.00,WeatherCatV1.15B25,2013-11-29 17:56:00,
2013-11-29 13:01:00,28.8,21.9,30.59,NW,309,0.0,3.0,75,0.00,,,0.00,WeatherCatV1.15B25,2013-11-29 18:01:00,
2013-11-29 13:06:00,28.9,22.0,30.60,NNW,331,3.0,4.0,75,0.00,,,0.00,WeatherCatV1.15B25,2013-11-29 18:06:00,
2013-11-29 13:11:00,28.8,21.9,30.59,NW,309,2.0,4.0,75,0.00,,,0.00,WeatherCatV1.15B25,2013-11-29 18:11:00,
2013-11-29 13:16:00,28.8,21.9,30.59,NW,326,0.0,4.0,75,0.00,,,0.00,WeatherCatV1.15B25,2013-11-29 18:16:00,
2013-11-29 13:21:00,28.7,22.1,30.60,NE,40,1.0,3.0,76,0.00,,,0.00,WeatherCatV1.15B25,2013-11-29 18:21:00,
2013-11-29 13:26:00,28.6,21.7,30.60,NNE,24,0.0,1.0,75,0.00,,,0.00,WeatherCatV1.15B25,2013-11-29 18:26:00,
2013-11-29 13:31:00,28.5,21.6,30.59,NNW,327,1.0,3.0,75,0.00,,,0.00,WeatherCatV1.15B25,2013-11-29 18:31:00,
2013-11-29 13:36:00,28.4,21.2,30.59,West,277,3.0,3.0,74,0.00,,,0.00,WeatherCatV1.15B25,2013-11-29 18:36:00,
2013-11-29 13:41:00,28.4,21.5,30.59,NW,306,0.0,0.0,75,0.00,,,0.00,WeatherCatV1.15B25,2013-11-29 18:41:00,
2013-11-29 13:46:00,28.5,21.9,30.59,North,5,1.0,2.0,76,0.00,,,0.00,WeatherCatV1.15B25,2013-11-29 18:46:00,
2013-11-29 13:51:00,28.7,21.5,30.59,North,0,0.0,0.0,74,0.00,,,0.00,WeatherCatV1.15B25,2013-11-29 18:51:00,
2013-11-29 13:56:00,28.9,21.7,30.59,North,5,0.0,0.0,74,0.00,,,0.00,WeatherCatV1.15B25,2013-11-29 18:56:00,
2013-11-29 14:01:00,29.0,21.8,30.59,North,5,2.0,2.0,74,0.00,,,0.00,WeatherCatV1.15B25,2013-11-29 19:01:00,
2013-11-29 14:06:00,28.9,21.0,30.59,ENE,69,1.0,3.0,72,0.00,,,0.00,WeatherCatV1.15B25,2013-11-29 19:06:00,
2013-11-29 14:11:00,28.7,21.2,30.59,North,5,0.0,2.0,73,0.00,,,0.00,WeatherCatV1.15B25,2013-11-29 19:11:00,
2013-11-29 14:16:00,28.6,20.7,30.59,NNW,333,0.0,0.0,72,0.00,,,0.00,WeatherCatV1.15B25,2013-11-29 19:16:00,
2013-11-29 14:21:00,28.5,20.6,30.60,NNW,333,0.0,1.0,72,0.00,,,0.00,WeatherCatV1.15B25,2013-11-29 19:21:00,
2013-11-29 14:26:00,28.4,20.5,30.60,NNW,333,0.0,0.0,72,0.00,,,0.00,WeatherCatV1.15B25,2013-11-29 19:26:00,
2013-11-29 14:31:00,28.4,20.9,30.60,NNW,333,0.0,0.0,73,0.00,,,0.00,WeatherCatV1.15B25,2013-11-29 19:31:00,
2013-11-29 14:36:00,28.4,20.9,30.60,NE,41,0.0,0.0,73,0.00,,,0.00,WeatherCatV1.15B25,2013-11-29 19:36:00,
2013-11-29 14:41:00,28.4,20.9,30.60,NNE,27,2.0,3.0,73,0.00,,,0.00,WeatherCatV1.15B25,2013-11-29 19:41:00,
2013-11-29 14:46:00,28.4,20.9,30.61,NNE,27,2.0,2.0,73,0.00,,,0.00,WeatherCatV1.15B25,2013-11-29 19:46:00,
2013-11-29 14:51:00,28.3,20.8,30.61,NNE,25,2.0,2.0,73,0.00,,,0.00,WeatherCatV1.15B25,2013-11-29 19:51:00,
2013-11-29 14:56:00,28.2,20.7,30.61,NNE,19,2.0,4.0,73,0.00,,,0.00,WeatherCatV1.15B25,2013-11-29 19:56:00,
2013-11-29 15:01:00,28.1,20.6,30.61,NNE,19,0.0,0.0,73,0.00,,,0.00,WeatherCatV1.15B25,2013-11-29 20:01:00,
2013-11-29 15:06:00,28.1,20.6,30.61,NNE,19,0.0,1.0,73,0.00,,,0.00,WeatherCatV1.15B25,2013-11-29 20:06:00,
2013-11-29 15:11:00,28.1,21.2,30.61,NNE,19,0.0,1.0,75,0.00,,,0.00,WeatherCatV1.15B25,2013-11-29 20:11:00,
2013-11-29 15:16:00,28.0,21.1,30.62,NNE,30,1.0,2.0,75,0.00,,,0.00,WeatherCatV1.15B25,2013-11-29 20:16:00,
2013-11-29 15:21:00,28.0,21.1,30.62,NNE,30,0.0,0.0,75,0.00,,,0.00,WeatherCatV1.15B25,2013-11-29 20:21:00,
2013-11-29 15:26:00,28.0,21.1,30.62,NNE,29,0.0,0.0,75,0.00,,,0.00,WeatherCatV1.15B25,2013-11-29 20:26:00,
2013-11-29 15:31:00,28.0,21.1,30.62,NNE,30,0.0,0.0,75,0.00,,,0.00,WeatherCatV1.15B25,2013-11-29 20:31:00,
2013-11-29 15:36:00,27.9,20.4,30.63,NNE,29,0.0,0.0,73,0.00,,,0.00,WeatherCatV1.15B25,2013-11-29 20:36:00,
2013-11-29 15:41:00,27.9,20.4,30.63,NNE,30,0.0,1.0,73,0.00,,,0.00,WeatherCatV1.15B25,2013-11-29 20:41:00,
2013-11-29 15:46:00,27.9,20.4,30.63,NNE,30,0.0,0.0,73,0.00,,,0.00,WeatherCatV1.15B25,2013-11-29 20:46:00,
2013-11-29 15:51:00,27.9,20.4,30.63,NNE,30,0.0,0.0,73,0.00,,,0.00,WeatherCatV1.15B25,2013-11-29 20:51:00,
2013-11-29 15:56:00,27.8,20.6,30.64,NNE,30,0.0,0.0,74,0.00,,,0.00,WeatherCatV1.15B25,2013-11-29 20:56:00,
2013-11-29 16:01:00,27.8,20.3,30.64,NNE,30,0.0,0.0,73,0.00,,,0.00,WeatherCatV1.15B25,2013-11-29 21:01:00,
2013-11-29 16:06:00,27.8,20.3,30.64,NNE,30,0.0,0.0,73,0.00,,,0.00,WeatherCatV1.15B25,2013-11-29 21:06:00,
2013-11-29 16:11:00,27.7,20.5,30.64,NNE,29,0.0,0.0,74,0.00,,,0.00,WeatherCatV1.15B25,2013-11-29 21:11:00,
2013-11-29 16:16:00,27.7,20.8,30.64,NNE,29,0.0,0.0,75,0.00,,,0.00,WeatherCatV1.15B25,2013-11-29 21:16:00,
2013-11-29 16:21:00,27.6,20.7,30.64,NNE,30,0.0,0.0,75,0.00,,,0.00,WeatherCatV1.15B25,2013-11-29 21:21:00,
2013-11-29 16:26:00,27.6,20.1,30.65,NNE,30,0.0,0.0,73,0.00,,,0.00,WeatherCatV1.15B25,2013-11-29 21:26:00,
2013-11-29 16:31:00,27.5,20.6,30.65,NNE,30,0.0,0.0,75,0.00,,,0.00,WeatherCatV1.15B25,2013-11-29 21:31:00,
2013-11-29 16:36:00,27.5,20.6,30.65,NNE,29,0.0,0.0,75,0.00,,,0.00,WeatherCatV1.15B25,2013-11-29 21:36:00,
2013-11-29 16:41:00,27.3,20.1,30.65,NNE,30,0.0,0.0,74,0.00,,,0.00,WeatherCatV1.15B25,2013-11-29 21:41:00,
2013-11-29 16:46:00,27.2,19.7,30.65,NNE,30,0.0,0.0,73,0.00,,,0.00,WeatherCatV1.15B25,2013-11-29 21:46:00,
2013-11-29 16:51:00,27.0,19.5,30.65,NNE,29,0.0,3.0,73,0.00,,,0.00,WeatherCatV1.15B25,2013-11-29 21:51:00,
2013-11-29 16:56:00,26.9,19.4,30.65,NNE,29,0.0,0.0,73,0.00,,,0.00,WeatherCatV1.15B25,2013-11-29 21:56:00,
2013-11-29 17:01:00,26.7,19.5,30.66,NNE,29,0.0,0.0,74,0.00,,,0.00,WeatherCatV1.15B25,2013-11-29 22:01:00,
2013-11-29 17:06:00,26.6,19.5,30.66,NNE,29,0.0,0.0,74,0.00,,,0.00,WeatherCatV1.15B25,2013-11-29 22:06:00,
2013-11-29 17:11:00,26.3,19.2,30.66,NNE,29,0.0,0.0,74,0.00,,,0.00,WeatherCatV1.15B25,2013-11-29 22:11:00,
2013-11-29 17:16:00,26.2,19.1,30.66,NNE,30,0.0,0.0,74,0.00,,,0.00,WeatherCatV1.15B25,2013-11-29 22:16:00,
2013-11-29 17:21:00,26.0,18.9,30.66,NNE,30,0.0,0.0,74,0.00,,,0.00,WeatherCatV1.15B25,2013-11-29 22:21:00,
2013-11-29 17:26:00,25.9,18.8,30.67,NNE,30,0.0,0.0,74,0.00,,,0.00,WeatherCatV1.15B25,2013-11-29 22:26:00,
2013-11-29 17:31:00,25.7,18.6,30.67,NNE,29,0.0,0.0,74,0.00,,,0.00,WeatherCatV1.15B25,2013-11-29 22:31:00,
2013-11-29 17:36:00,25.6,18.5,30.67,NNE,30,0.0,0.0,74,0.00,,,0.00,WeatherCatV1.15B25,2013-11-29 22:36:00,
2013-11-29 17:41:00,25.4,18.6,30.67,NNE,30,0.0,0.0,75,0.00,,,0.00,WeatherCatV1.15B25,2013-11-29 22:41:00,
2013-11-29 17:46:00,25.3,18.2,30.67,NNE,29,0.0,0.0,74,0.00,,,0.00,WeatherCatV1.15B25,2013-11-29 22:46:00,
2013-11-29 17:51:00,25.2,18.1,30.67,NNE,29,0.0,0.0,74,0.00,,,0.00,WeatherCatV1.15B25,2013-11-29 22:51:00,
2013-11-29 17:56:00,25.0,18.2,30.68,NNE,29,0.0,0.0,75,0.00,,,0.00,WeatherCatV1.15B25,2013-11-29 22:56:00,
2013-11-29 18:01:00,24.9,18.1,30.68,NNE,29,0.0,0.0,75,0.00,,,0.00,WeatherCatV1.15B25,2013-11-29 23:01:00,
2013-11-29 18:06:00,24.8,18.0,30.68,NNE,29,0.0,0.0,75,0.00,,,0.00,WeatherCatV1.15B25,2013-11-29 23:06:00,
2013-11-29 18:11:00,24.8,18.0,30.68,NW,326,3.0,4.0,75,0.00,,,0.00,WeatherCatV1.15B25,2013-11-29 23:11:00,
2013-11-29 18:16:00,24.9,17.8,30.68,NNW,331,3.0,4.0,74,0.00,,,0.00,WeatherCatV1.15B25,2013-11-29 23:16:00,
2013-11-29 18:21:00,25.0,17.6,30.68,NNW,330,1.0,3.0,73,0.00,,,0.00,WeatherCatV1.15B25,2013-11-29 23:21:00,
2013-11-29 18:26:00,25.0,17.6,30.69,NNW,330,3.0,3.0,73,0.00,,,0.00,WeatherCatV1.15B25,2013-11-29 23:26:00,
2013-11-29 18:31:00,25.0,17.6,30.69,NNW,330,0.0,3.0,73,0.00,,,0.00,WeatherCatV1.15B25,2013-11-29 23:31:00,
2013-11-29 18:36:00,25.0,17.6,30.68,NNW,329,1.0,4.0,73,0.00,,,0.00,WeatherCatV1.15B25,2013-11-29 23:36:00,
2013-11-29 18:41:00,24.9,17.5,30.69,NW,317,1.0,3.0,73,0.00,,,0.00,WeatherCatV1.15B25,2013-11-29 23:41:00,
2013-11-29 18:46:00,24.8,17.7,30.69,NW,325,0.0,4.0,74,0.00,,,0.00,WeatherCatV1.15B25,2013-11-29 23:46:00,
2013-11-29 18:51:00,24.7,17.6,30.69,NW,323,0.0,3.0,74,0.00,,,0.00,WeatherCatV1.15B25,2013-11-29 23:51:00,
2013-11-29 18:56:00,24.6,17.5,30.69,NW,309,2.0,4.0,74,0.00,,,0.00,WeatherCatV1.15B25,2013-11-29 23:56:00,
2013-11-29 19:01:00,24.5,17.4,30.69,NW,315,2.0,3.0,74,0.00,,,0.00,WeatherCatV1.15B25,2013-11-30 00:01:00,
2013-11-29 19:06:00,24.4,17.6,30.69,NW,315,1.0,3.0,75,0.00,,,0.00,WeatherCatV1.15B25,2013-11-30 00:06:00,
2013-11-29 19:11:00,24.4,17.6,30.70,NW,314,2.0,4.0,75,0.00,,,0.00,WeatherCatV1.15B25,2013-11-30 00:11:00,
2013-11-29 19:16:00,24.4,17.9,30.70,NW,314,2.0,2.0,76,0.00,,,0.00,WeatherCatV1.15B25,2013-11-30 00:16:00,
2013-11-29 19:21:00,24.3,17.8,30.70,NW,320,1.0,4.0,76,0.00,,,0.00,WeatherCatV1.15B25,2013-11-30 00:21:00,
2013-11-29 19:26:00,24.2,18.0,30.70,NW,321,2.0,3.0,77,0.00,,,0.00,WeatherCatV1.15B25,2013-11-30 00:26:00,
2013-11-29 19:31:00,24.1,18.0,30.70,NW,321,0.0,3.0,77,0.00,,,0.00,WeatherCatV1.15B25,2013-11-30 00:31:00,
2013-11-29 19:36:00,24.0,18.2,30.70,NNW,328,2.0,3.0,78,0.00,,,0.00,WeatherCatV1.15B25,2013-11-30 00:36:00,
2013-11-29 19:41:00,23.9,18.1,30.70,NNW,327,3.0,3.0,78,0.00,,,0.00,WeatherCatV1.15B25,2013-11-30 00:41:00,
2013-11-29 19:46:00,23.9,18.1,30.70,NNW,330,3.0,6.0,78,0.00,,,0.00,WeatherCatV1.15B25,2013-11-30 00:46:00,
2013-11-29 19:51:00,23.9,18.4,30.70,NW,319,2.0,5.0,79,0.00,,,0.00,WeatherCatV1.15B25,2013-11-30 00:51:00,
2013-11-29 19:56:00,23.8,18.3,30.71,NW,319,4.0,4.0,79,0.00,,,0.00,WeatherCatV1.15B25,2013-11-30 00:56:00,
2013-11-29 20:01:00,23.8,18.0,30.71,NNW,333,3.0,3.0,78,0.00,,,0.00,WeatherCatV1.15B25,2013-11-30 01:01:00,
2013-11-29 20:06:00,23.8,18.0,30.71,NNW,330,0.0,2.0,78,0.00,,,0.00,WeatherCatV1.15B25,2013-11-30 01:06:00,
2013-11-29 20:11:00,23.7,17.9,30.71,NNW,330,1.0,2.0,78,0.00,,,0.00,WeatherCatV1.15B25,2013-11-30 01:11:00,
2013-11-29 20:16:00,23.6,17.5,30.71,NE,37,0.0,2.0,77,0.00,,,0.00,WeatherCatV1.15B25,2013-11-30 01:16:00,
2013-11-29 20:21:00,23.5,17.4,30.71,North,350,0.0,0.0,77,0.00,,,0.00,WeatherCatV1.15B25,2013-11-30 01:21:00,
2013-11-29 20:26:00,23.4,17.3,30.72,NNW,331,1.0,3.0,77,0.00,,,0.00,WeatherCatV1.15B25,2013-11-30 01:26:00,
2013-11-29 20:31:00,23.2,17.1,30.72,NNW,331,0.0,0.0,77,0.00,,,0.00,WeatherCatV1.15B25,2013-11-30 01:31:00,
2013-11-29 20:36:00,23.0,16.9,30.72,NNW,331,0.0,0.0,77,0.00,,,0.00,WeatherCatV1.15B25,2013-11-30 01:36:00,
2013-11-29 20:41:00,22.9,16.8,30.72,NNW,331,0.0,2.0,77,0.00,,,0.00,WeatherCatV1.15B25,2013-11-30 01:41:00,
2013-11-29 20:46:00,22.7,16.3,30.72,NNW,331,0.0,2.0,76,0.00,,,0.00,WeatherCatV1.15B25,2013-11-30 01:46:00,
2013-11-29 20:51:00,22.6,16.2,30.72,NNW,331,1.0,1.0,76,0.00,,,0.00,WeatherCatV1.15B25,2013-11-30 01:51:00,
2013-11-29 20:56:00,22.6,15.9,30.72,NW,325,2.0,4.0,75,0.00,,,0.00,WeatherCatV1.15B25,2013-11-30 01:56:00,
2013-11-29 21:01:00,22.6,15.9,30.72,NNW,331,1.0,3.0,75,0.00,,,0.00,WeatherCatV1.15B25,2013-11-30 02:01:00,
2013-11-29 21:06:00,22.5,15.8,30.72,NNW,329,3.0,5.0,75,0.00,,,0.00,WeatherCatV1.15B25,2013-11-30 02:06:00,
2013-11-29 21:11:00,22.5,15.5,30.73,NNW,331,2.0,3.0,74,0.00,,,0.00,WeatherCatV1.15B25,2013-11-30 02:11:00,
2013-11-29 21:16:00,22.4,15.4,30.73,NNW,345,2.0,5.0,74,0.00,,,0.00,WeatherCatV1.15B25,2013-11-30 02:16:00,
2013-11-29 21:21:00,22.4,15.4,30.72,NNW,327,0.0,3.0,74,0.00,,,0.00,WeatherCatV1.15B25,2013-11-30 02:21:00,
2013-11-29 21:26:00,22.2,15.2,30.73,NNW,329,0.0,3.0,74,0.00,,,0.00,WeatherCatV1.15B25,2013-11-30 02:26:00,
2013-11-29 21:31:00,22.2,15.2,30.73,NNW,329,0.0,0.0,74,0.00,,,0.00,WeatherCatV1.15B25,2013-11-30 02:31:00,
2013-11-29 21:36:00,22.2,15.2,30.73,NNW,329,0.0,0.0,74,0.00,,,0.00,WeatherCatV1.15B25,2013-11-30 02:36:00,
2013-11-29 21:41:00,22.1,15.4,30.73,NNW,329,0.0,0.0,75,0.00,,,0.00,WeatherCatV1.15B25,2013-11-30 02:41:00,
2013-11-29 21:46:00,22.0,15.0,30.73,NNE,26,0.0,2.0,74,0.00,,,0.00,WeatherCatV1.15B25,2013-11-30 02:46:00,
2013-11-29 21:51:00,21.9,14.9,30.72,NE,45,3.0,3.0,74,0.00,,,0.00,WeatherCatV1.15B25,2013-11-30 02:51:00,
2013-11-29 21:56:00,21.8,14.5,30.73,NE,42,0.0,0.0,73,0.00,,,0.00,WeatherCatV1.15B25,2013-11-30 02:56:00,
2013-11-29 22:02:00,21.8,14.5,30.73,NE,42,0.0,2.0,73,0.00,,,0.00,WeatherCatV1.15B25,2013-11-30 03:02:00,
2013-11-29 22:07:00,21.7,14.4,30.73,NNW,348,3.0,3.0,73,0.00,,,0.00,WeatherCatV1.15B25,2013-11-30 03:07:00,
2013-11-29 22:12:00,21.7,14.4,30.73,North,0,0.0,1.0,73,0.00,,,0.00,WeatherCatV1.15B25,2013-11-30 03:12:00,
2013-11-29 22:17:00,21.6,14.0,30.73,NW,325,1.0,4.0,72,0.00,,,0.00,WeatherCatV1.15B25,2013-11-30 03:17:00,
2013-11-29 22:22:00,21.6,13.7,30.73,North,355,1.0,3.0,71,0.00,,,0.00,WeatherCatV1.15B25,2013-11-30 03:22:00,
2013-11-29 22:27:00,21.5,13.6,30.73,North,355,1.0,2.0,71,0.00,,,0.00,WeatherCatV1.15B25,2013-11-30 03:27:00,
2013-11-29 22:32:00,21.3,13.4,30.73,North,0,4.0,4.0,71,0.00,,,0.00,WeatherCatV1.15B25,2013-11-30 03:32:00,
2013-11-29 22:37:00,21.1,13.2,30.73,NW,323,3.0,4.0,71,0.00,,,0.00,WeatherCatV1.15B25,2013-11-30 03:37:00,
2013-11-29 22:42:00,21.0,13.1,30.73,NNW,344,1.0,4.0,71,0.00,,,0.00,WeatherCatV1.15B25,2013-11-30 03:42:00,
2013-11-29 22:47:00,20.9,13.0,30.73,NNW,331,2.0,4.0,71,0.00,,,0.00,WeatherCatV1.15B25,2013-11-30 03:47:00,
2013-11-29 22:52:00,20.8,12.9,30.73,North,349,1.0,2.0,71,0.00,,,0.00,WeatherCatV1.15B25,2013-11-30 03:52:00,
2013-11-29 22:57:00,20.7,12.8,30.74,NW,321,4.0,4.0,71,0.00,,,0.00,WeatherCatV1.15B25,2013-11-30 03:57:00,
2013-11-29 23:02:00,20.6,12.7,30.73,NNW,327,2.0,5.0,71,0.00,,,0.00,WeatherCatV1.15B25,2013-11-30 04:02:00,
2013-11-29 23:07:00,20.5,12.9,30.73,NW,318,4.0,4.0,72,0.00,,,0.00,WeatherCatV1.15B25,2013-11-30 04:07:00,
2013-11-29 23:12:00,20.6,13.0,30.74,NNW,334,2.0,3.0,72,0.00,,,0.00,WeatherCatV1.15B25,2013-11-30 04:12:00,
2013-11-29 23:17:00,20.6,13.3,30.74,North,0,1.0,3.0,73,0.00,,,0.00,WeatherCatV1.15B25,2013-11-30 04:17:00,
2013-11-29 23:22:00,20.6,13.3,30.73,NNW,348,0.0,3.0,73,0.00,,,0.00,WeatherCatV1.15B25,2013-11-30 04:22:00,
2013-11-29 23:27:00,20.5,13.2,30.73,NW,316,2.0,2.0,73,0.00,,,0.00,WeatherCatV1.15B25,2013-11-30 04:27:00,
2013-11-29 23:32:00,20.4,13.5,30.74,NNE,21,1.0,3.0,74,0.00,,,0.00,WeatherCatV1.15B25,2013-11-30 04:32:00,
2013-11-29 23:37:00,20.4,13.1,30.73,NNE,24,2.0,3.0,73,0.00,,,0.00,WeatherCatV1.15B25,2013-11-30 04:37:00,
2013-11-29 23:42:00,20.4,13.1,30.73,NE,46,1.0,3.0,73,0.00,,,0.00,WeatherCatV1.15B25,2013-11-30 04:42:00,
2013-11-29 23:47:00,20.3,13.1,30.73,North,11,1.0,3.0,73,0.00,,,0.00,WeatherCatV1.15B25,2013-11-30 04:47:00,
2013-11-29 23:52:00,20.3,13.1,30.73,NNE,29,3.0,4.0,73,0.00,,,0.00,WeatherCatV1.15B25,2013-11-30 04:52:00,
2013-11-29 23:57:00,20.2,13.0,30.73,NNE,15,1.0,3.0,73,0.00,,,0.00,WeatherCatV1.15B25,2013-11-30 04:57:00,